Zurück zum Katalog

YAOGAN-43 O1F

AktivMilitärVLEO
NORAD 60463·PAYLOAD·🇨🇳 China

Gestartet Aug 16, 2024 von Xichang Satellite Launch Center

Loading…

Nächste Überflüge (nächste 24 Stunden)

TLE

AktuellSource: Space-Track

Epoche: Sep 14, 2026, 13:37 UTC

1 60463U 24148F   26257.56778321  .00011587  00000-0  33787-3 0  9992
2 60463  34.9916 297.0058 0007217 308.3485  51.6584 15.34516436116018

Verfolge YAOGAN-43 O1F in Echtzeit mit AllMySat

Download on the App Store